Location: Bijele Vode
(45.2833°N, 16.2000°E)
Time: 22:59:10
(UTC+00:00)

Cosmos 1125 Rocket - Pass Details

Date: 25 January 2021
Orbit: 757 x 780 km, 74.0° (Epoch: 08 March)

Event Time Altitude Azimuth Distance (km) Brightness Sun altitude
Exits shadow 04:33:09 - 343° (NNW) 2,639 6.0 -19.3°
Reaches altitude 10° 04:33:56 10° 345° (NNW) 2,338 5.8 -19.1°
Maximum altitude 04:39:12 62° 66° (ENE) 874 4.0 -18.2°
Drops below altitude 10° 04:44:27 10° 147° (SSE) 2,329 6.6 -17.3°
Sets 04:46:52 0° 151° (SSE) 3,252 7.3 -16.9°
